Regional Weather Roundup
Issued by NWS Upton, NY

Current Version | Previous Version | Text Only | Print | Product List | Glossary On
Versions: 1 2 3 4 5 6 7 8 9 10 11 12 13 14 15 16 17 18 19 20 21 22 23 24 25 26 27 28 29 30 31 32 33 34 35 36 37 38 39 40 41 42 43 44 45 46 47 48 49 50
000 ASUS41 KOKX 230608 RWROKX REGIONAL WEATHER ROUNDUP NATIONAL WEATHER SERVICE NEW YORK NY 200 AM EDT SAT MAY 23 2015 NOTE: "FAIR" INDICATES FEW OR NO CLOUDS BELOW 12,000 FEET WITH NO SIGNIFICANT WEATHER AND/OR OBSTRUCTIONS TO VISIBILITY. NYZ071-072-176-178-NJZ106-104-230700- NEW YORK CITY METRO AREA CITY SKY/WX TMP DP RH WIND PRES REMARKS CENTRAL PARK CLEAR 56 28 34 VRB3 30.24R LAGUARDIA APRT CLEAR 57 31 37 NW22G33 30.21R KENNEDY INTL CLEAR 58 28 32 NW18G28 30.20R NEWARK/LIBERTY CLEAR 56 28 34 NW15 30.22R BRNX BOT. GARD N/A 54 28 37 N6 30.20S TETERBORO CLEAR 54 26 34 NW14 30.21R $$ NYZ177-179-078>081-230700- LONG ISLAND NEW YORK CITY SKY/WX TMP DP RH WIND PRES REMARKS FARMINGDALE CLEAR 57 32 38 N13 30.19R ISLIP CLEAR 55 36 48 NW14 30.16R SHIRLEY CLEAR 56 33 42 NW12G20 30.17R WESTHAMPTON CLEAR 43 32 65 NW3 30.17R MONTAUK POINT N/A 55 38 52 NW8 30.16R $$ NYZ052-065-067-230700- HUDSON VALLEY CITY SKY/WX TMP DP RH WIND PRES REMARKS WHITE PLAINS CLEAR 52 24 33 NW22G30 30.18R NEWBURGH CLEAR 50 27 40 NW14 30.21R MONTGOMERY CLEAR 49 25 39 NW7 30.21R POUGHKEEPSIE CLEAR 50 26 39 NW7 30.19R ALBANY MOCLDY 45 28 51 NW10 30.24R $$ NJZ001-105-106-008-010-013-015-019>022-104-230700- NEW JERSEY CITY SKY/WX TMP DP RH WIND PRES REMARKS NEWARK/LIBERTY CLEAR 56 28 34 NW15 30.22R TETERBORO CLEAR 54 26 34 NW14 30.21R CALDWELL CLEAR 53 25 33 NW9 30.24R MORRISTOWN CLEAR 55 23 28 NW10G16 30.24R SOMERVILLE CLEAR 44 40 85 CALM 30.22R SUSSEX CLEAR 49 25 39 CALM 30.25R ANDOVER N/A 49 26 41 VRB7 30.23R TRENTON CLEAR 52 36 54 N5 30.23R MILLVILLE CLEAR 51 39 63 W6 30.24R ATLANTIC CITY FAIR 55 40 56 W3 30.22R WRIGHTSTOWN CLEAR 54 36 49 NW8 30.20R TOMS RIVER CLEAR 48 39 71 NW5 30.22R BELMAR CLEAR 52 36 54 NW8 30.21R $$ PAZ047>061-062-071-230700- EASTERN PENNSYLVANIA CITY SKY/WX TMP DP RH WIND PRES REMARKS PHILADELPHIA CLEAR 60 28 29 NW12 30.24R ALLENTOWN CLEAR 52 31 44 N13 30.26R SCRANTON CLEAR 46 25 43 NW6 30.25S $$ CTZ002-004>006-009-010-012-RIZ004-006-007-MAZ004-011-015-230700- SOUTHERN NEW ENGLAND IN CT CITY SKY/WX TMP DP RH WIND PRES REMARKS BRADLEY INTL CLEAR 51 24 34 NW14 30.15R HARTFORD CLEAR 53 22 29 NW13G23 30.17R DANBURY CLEAR 51 26 37 W7 30.19R WTRBRY/OXFORD CLEAR 46 28 49 NW7 30.18R BRIDGEPORT CLEAR 55 33 43 NW9 30.17R MERIDEN CLEAR 43 35 73 CALM 30.17R NEW HAVEN CLEAR 52 33 48 NW6 30.17R CHESTER FAIR 52 30 43 NW7 30.15R GROTON CLEAR 53 29 39 NW10 30.14R WILLIMANTIC CLEAR 52 28 39 NW6 30.14R IN RI CITY SKY/WX TMP DP RH WIND PRES REMARKS PROVIDENCE CLEAR 54 24 31 NW12 30.11R BLOCK ISLAND PTCLDY 54 32 43 NW8 30.14R WESTERLY CLEAR 53 29 39 VRB5 30.14R IN MA CITY SKY/WX TMP DP RH WIND PRES REMARKS BOSTON CLEAR 51 32 48 NW17G28 30.12R WORCESTER CLEAR 47 29 49 NW13 30.12R WESTFIELD CLEAR 48 30 49 NW7 30.16R PROVINCETOWN PTCLDY 54 39 58 NW9 30.08R NANTUCKET MOCLDY 58 31 35 NW15G24 30.09R $$ ANZ330-335-338-340-345-350-353-355-230700- COASTAL MARINE OBSERVATIONS STATION/POSITION TIME SKY/WX TEMP WIND PRES VSBY WAVE AIR SEA DIR/SP/G HT/PER (UTC) (F) (DEG/KT/KT) (MB) (MI) (FT/S) NY HARB ENTRANCE 0550 59 56 330/ 17/ 21 1021.7 3/ 3 4S FIRE IS 0503 54 N/A 2/ 7 20S FIRE ISLAND 0550 58 55 320/ 14/ 16 1021.5 2/ 5 GREAT SOUTH BAY NOT AVBL 23SW MTP 0550 54 52 310/ 4/ 6 1020.6 2/ 4 HUDSON CANYON NOT AVBL KINGS POINT 0500 58 54 10/ 14/ 20 1020.8 CENTRAL LI SOUND 0500 55 51 320/ 6/ 8 N/A EASTERN LI SOUND 0500 54 320/ 10/ 12 N/A ROBBINS REEF 0500 58 330/ 17/ 22 1020.6 $$ >>>>>>>>>>>>>>>>>>>>>>>>>>>> KEY <<<<<<<<<<<<<<<<<<<<<<<<<<< > < > SKY/WX - SKY CONDITION/PRESENT WEATHER < > TMP - TEMPERATURE IN FAHRENHEIT < > DP - DEWPOINT IN FAHRENHEIT < > RH - RELATIVE HUMIDITY IN PERCENT < > WIND - DIRECTION AND SPEED IN MPH < > PRES - MEAN SEA LEVEL PRESSURE IN INCHES OF HG < > WCI - WIND CHILL INDEX < > VSB - VISIBILITY IN MILES < > HX - HEAT INDEX < > TC - TEMPERATURE IN CELSIUS < > VRB - VARIABLE WIND DIRECTION < > < >>>>>>>>>>>>>>>>>>>>>>>>>>>> KEY <<<<<<<<<<<<<<<<<<<<<<<<<<<

USA.gov is the U.S. government's official web portal to all federal, state and local government web resources and services.